{"data":{"norad_id":63566,"epoch":"2026-09-20T16:33:52.930944Z","epoch_age_seconds":139239,"freshness":"FRESH","line1":"1 63566U 25075U   26263.69019596  .00014775  00000+0  54520-3 0  9991","line2":"2 63566  43.0017 249.0148 0001700 269.3684  90.6973 15.27588422 81756","mean_motion":15.27588422,"eccentricity":0.00017,"inclination_deg":43.0017,"raan_deg":249.0148,"arg_perigee_deg":269.3684,"mean_anomaly_deg":90.6973,"bstar":0.0005452,"rev_number":8175,"period_min":94.266228996072,"perigee_km":481.85748030852,"apogee_km":484.19027500692,"semimajor_km":6861.1608776577,"source":"CELESTRAK","updated_at":"2026-09-21T09:00:35.023140Z"}}